Location: Casilda
(33.0440°S, 61.1680°W)
Time: 02:05:02
(UTC-03:00)

ISS - Pass Details

Date: 16 February 2020
Orbit: 415 x 423 km, 51.6° (Epoch: 27 February)

Event Time Altitude Azimuth Distance (km) Brightness Sun altitude
Rises 20:24:55 0° 318° (NW) 2,359 0.4 -6.7°
Reaches altitude 10° 20:27:00 10° 319° (NW) 1,501 -0.6 -7.2°
Maximum altitude 20:30:22 80° 44° (NE) 434 -3.8 -7.8°
Drops below altitude 10° 20:33:46 10° 132° (SE) 1,515 -1.2 -8.5°
Sets 20:35:53 0° 133° (SE) 2,385 -0.2 -8.9°
